TimeAEDT,TemperatureF,Dew PointF,Humidity,Sea Level PressureIn,VisibilityMPH,Wind Direction,Wind SpeedMPH,Gust SpeedMPH,PrecipitationIn,Events,Conditions,WindDirDegrees,DateUTC
12:00 AM,49,43,72,30.15,25,West,10.4,,,,Partly Cloudy,280,2013-03-28 13:00:00
12:00 AM,50.0,42.8,76,30.15,-9999.0,West,10.4,-,N/A,,Clear,280,2013-03-28 13:00:00
12:30 AM,50.0,42.8,76,30.15,-9999.0,West,10.4,-,N/A,,Clear,270,2013-03-28 13:30:00
1:00 AM,50.0,42.8,76,30.15,-9999.0,West,11.5,-,N/A,,Clear,270,2013-03-28 14:00:00
1:30 AM,48.2,42.8,82,30.15,-9999.0,West,11.5,-,N/A,,Clear,280,2013-03-28 14:30:00
2:00 AM,49,43,71,30.15,,West,10.4,,,,,280,2013-03-28 15:00:00
2:00 AM,48.2,42.8,82,30.15,-9999.0,West,10.4,-,N/A,,Clear,280,2013-03-28 15:00:00
2:30 AM,50.0,42.8,76,30.15,-9999.0,West,12.7,-,N/A,,Clear,270,2013-03-28 15:30:00
3:00 AM,50,42,67,30.15,25,West,13.8,,,,Partly Cloudy,280,2013-03-28 16:00:00
3:00 AM,50.0,42.8,76,30.15,-9999.0,West,13.8,-,N/A,,Clear,270,2013-03-28 16:00:00
3:30 AM,50.0,42.8,76,30.15,-9999.0,West,10.4,-,N/A,,Clear,280,2013-03-28 16:30:00
4:00 AM,50.0,42.8,76,30.12,-9999.0,West,12.7,-,N/A,,Clear,280,2013-03-28 17:00:00
4:30 AM,50.0,42.8,76,30.12,-9999.0,West,11.5,-,N/A,,Clear,270,2013-03-28 17:30:00
5:00 AM,49,42,71,30.14,,West,10.4,,,,,270,2013-03-28 18:00:00
5:00 AM,50.0,42.8,76,30.12,-9999.0,West,10.4,-,N/A,,Clear,270,2013-03-28 18:00:00
5:30 AM,51.8,42.8,71,30.12,6.2,West,9.2,-,N/A,,Mostly Cloudy,270,2013-03-28 18:30:00
6:00 AM,52,43,63,30.14,22,West,10.4,,,,Partly Cloudy,270,2013-03-28 19:00:00
6:00 AM,51.8,42.8,71,30.12,6.2,West,10.4,-,N/A,,Mostly Cloudy,270,2013-03-28 19:00:00
6:30 AM,50.0,42.8,76,30.12,-9999.0,West,11.5,-,N/A,,Clear,270,2013-03-28 19:30:00
7:00 AM,50.0,42.8,76,30.15,-9999.0,West,11.5,-,N/A,,Clear,280,2013-03-28 20:00:00
7:30 AM,50.0,42.8,76,30.15,-9999.0,West,9.2,-,N/A,,Clear,270,2013-03-28 20:30:00
8:00 AM,49,42,71,30.16,,West,9.2,,,,,280,2013-03-28 21:00:00
8:00 AM,50.0,42.8,76,30.15,6.2,West,9.2,-,N/A,,Mostly Cloudy,280,2013-03-28 21:00:00
8:30 AM,50.0,42.8,76,30.15,6.2,West,9.2,-,N/A,,Partly Cloudy,270,2013-03-28 21:30:00
9:00 AM,55,44,58,30.17,16,West,9.2,,,,Haze,270,2013-03-28 22:00:00
9:00 AM,55.4,44.6,67,30.15,6.2,West,9.2,-,N/A,,Partly Cloudy,270,2013-03-28 22:00:00
9:30 AM,57.2,42.8,59,30.18,6.2,West,11.5,-,N/A,,Partly Cloudy,260,2013-03-28 22:30:00
10:00 AM,57.2,42.8,59,30.18,6.2,WSW,11.5,-,N/A,,Partly Cloudy,250,2013-03-28 23:00:00
10:30 AM,60.8,41.0,48,30.15,6.2,WSW,10.4,-,N/A,,Partly Cloudy,250,2013-03-28 23:30:00
11:00 AM,62,42,37,30.17,,WSW,13.8,,,,,240,2013-03-29 00:00:00
11:00 AM,62.6,42.8,48,30.15,6.2,WSW,13.8,-,N/A,,Partly Cloudy,240,2013-03-29 00:00:00
11:30 AM,60.8,41.0,48,30.15,6.2,WSW,16.1,-,N/A,,Mostly Cloudy,250,2013-03-29 00:30:00
12:00 PM,62,44,41,30.17,19,West,10.4,,,,Partly Cloudy,260,2013-03-29 01:00:00
12:00 PM,62.6,44.6,52,30.15,6.2,West,10.4,-,N/A,,Mostly Cloudy,260,2013-03-29 01:00:00
12:30 PM,60.8,44.6,55,30.15,6.2,WSW,11.5,-,N/A,,Mostly Cloudy,240,2013-03-29 01:30:00
1:00 PM,60.8,44.6,55,30.15,6.2,WSW,9.2,-,N/A,,Mostly Cloudy,250,2013-03-29 02:00:00
1:30 PM,60.8,44.6,55,30.15,6.2,WSW,8.1,-,N/A,,Mostly Cloudy,250,2013-03-29 02:30:00
2:00 PM,62,45,42,30.14,,WSW,10.4,,,,,250,2013-03-29 03:00:00
2:00 PM,62.6,44.6,52,30.12,6.2,WSW,10.4,-,N/A,,Mostly Cloudy,250,2013-03-29 03:00:00
2:30 PM,62.6,44.6,52,30.12,6.2,WSW,10.4,-,N/A,,Mostly Cloudy,250,2013-03-29 03:30:00
3:00 PM,62,44,41,30.12,19,WSW,9.2,,,,Partly Cloudy,250,2013-03-29 04:00:00
3:00 PM,62.6,44.6,52,30.12,6.2,WSW,9.2,-,N/A,,Mostly Cloudy,250,2013-03-29 04:00:00
3:30 PM,62.6,44.6,52,30.12,6.2,West,10.4,-,N/A,,Mostly Cloudy,270,2013-03-29 04:30:00
4:00 PM,62.6,44.6,52,30.09,6.2,West,9.2,-,N/A,,Mostly Cloudy,280,2013-03-29 05:00:00
4:30 PM,62.6,44.6,52,30.09,6.2,West,8.1,-,N/A,,Mostly Cloudy,280,2013-03-29 05:30:00
5:00 PM,63,45,41,30.09,,WNW,5.8,,,,,290,2013-03-29 06:00:00
5:00 PM,62.6,44.6,52,30.09,6.2,WNW,5.8,-,N/A,,Mostly Cloudy,290,2013-03-29 06:00:00
5:30 PM,64.4,44.6,49,30.09,6.2,NW,5.8,-,N/A,,Mostly Cloudy,320,2013-03-29 06:30:00
6:00 PM,64,44,37,30.08,25,WNW,5.8,,,,Partly Cloudy,300,2013-03-29 07:00:00
6:00 PM,64.4,44.6,49,30.06,6.2,WNW,5.8,-,N/A,,Mostly Cloudy,300,2013-03-29 07:00:00
6:30 PM,64.4,44.6,49,30.06,-9999.0,NNW,5.8,-,N/A,,Clear,340,2013-03-29 07:30:00
7:00 PM,60.8,44.6,55,30.06,6.2,North,5.8,-,N/A,,Mostly Cloudy,350,2013-03-29 08:00:00
7:30 PM,60.8,46.4,59,30.06,-9999.0,North,6.9,-,N/A,,Clear,10,2013-03-29 08:30:00
8:00 PM,56,47,65,30.07,,NNE,6.9,,,,,20,2013-03-29 09:00:00
8:00 PM,55.4,48.2,77,30.06,-9999.0,NNE,6.9,-,N/A,,Clear,20,2013-03-29 09:00:00
8:30 PM,55.4,46.4,72,30.06,-9999.0,North,8.1,-,N/A,,Clear,10,2013-03-29 09:30:00
9:00 PM,56,47,62,30.09,25,North,10.4,,,,Partly Cloudy,10,2013-03-29 10:00:00
9:00 PM,57.2,46.4,67,30.09,-9999.0,North,10.4,-,N/A,,Clear,10,2013-03-29 10:00:00
9:30 PM,55.4,46.4,72,30.06,-9999.0,North,11.5,-,N/A,,Clear,10,2013-03-29 10:30:00
10:00 PM,57.2,46.4,67,30.09,-9999.0,North,10.4,-,N/A,,Clear,360,2013-03-29 11:00:00
10:30 PM,57.2,46.4,67,30.06,-9999.0,North,12.7,-,N/A,,Clear,360,2013-03-29 11:30:00
11:00 PM,57,46,56,30.07,,North,17.3,,,,,0,2013-03-29 12:00:00
11:00 PM,57.2,46.4,67,30.06,-9999.0,North,17.3,-,N/A,,Clear,360,2013-03-29 12:00:00
11:30 PM,57.2,46.4,67,30.06,-9999.0,North,15.0,-,N/A,,Clear,360,2013-03-29 12:30:00